Time,TemperatureF,DewpointF,PressureIn,WindDirection,WindDirectionDegrees,WindSpeedMPH,WindSpeedGustMPH,Humidity,HourlyPrecipIn,Conditions,Clouds,dailyrainin,SoftwareType,DateUTC
2013-04-17 00:00:00,58.0,51.5,30.07,South,190,0.0,3.0,79,0.00,,,0.01,Wunderground v.1.15,2013-04-17 04:00:00,
2013-04-17 00:01:00,58.0,51.5,30.07,South,190,0.0,3.0,79,0.00,,,0.01,Wunderground v.1.15,2013-04-17 04:01:00,
2013-04-17 00:06:00,58.0,51.5,30.07,SW,231,3.0,6.0,79,0.00,,,0.00,Wunderground v.1.15,2013-04-17 04:06:00,
2013-04-17 00:11:00,58.0,51.5,30.07,SW,232,2.0,4.0,79,0.00,,,0.00,Wunderground v.1.15,2013-04-17 04:11:00,
2013-04-17 00:16:00,58.0,51.5,30.07,WNW,286,0.0,5.0,79,0.00,,,0.00,Wunderground v.1.15,2013-04-17 04:16:00,
2013-04-17 00:21:00,58.0,51.9,30.07,SW,223,0.0,7.0,80,0.00,,,0.00,Wunderground v.1.15,2013-04-17 04:21:00,
2013-04-17 00:26:00,58.1,52.0,30.07,SW,229,11.0,11.0,80,0.00,,,0.00,Wunderground v.1.15,2013-04-17 04:26:00,
2013-04-17 00:31:00,58.4,52.3,30.07,WSW,245,6.0,11.0,80,0.00,,,0.00,Wunderground v.1.15,2013-04-17 04:31:00,
2013-04-17 00:36:00,58.6,52.4,30.07,SW,215,6.0,16.0,80,0.00,,,0.00,Wunderground v.1.15,2013-04-17 04:36:00,
2013-04-17 00:41:00,58.7,52.5,30.07,SW,234,9.0,10.0,80,0.00,,,0.00,Wunderground v.1.15,2013-04-17 04:41:00,
2013-04-17 00:46:00,58.8,52.3,30.07,WSW,237,12.0,12.0,79,0.00,,,0.00,Wunderground v.1.15,2013-04-17 04:46:00,
2013-04-17 00:51:00,58.9,52.4,30.07,WSW,244,5.0,6.0,79,0.00,,,0.00,Wunderground v.1.15,2013-04-17 04:51:00,
2013-04-17 00:56:00,58.9,52.4,30.07,SW,225,4.0,17.0,79,0.00,,,0.00,Wunderground v.1.15,2013-04-17 04:56:00,
2013-04-17 01:02:00,59.0,52.5,30.07,SW,221,6.0,11.0,79,0.00,,,0.00,Wunderground v.1.15,2013-04-17 05:02:00,
2013-04-17 01:07:00,58.9,52.4,30.07,SSW,211,3.0,11.0,79,0.00,,,0.00,Wunderground v.1.15,2013-04-17 05:07:00,
2013-04-17 01:13:00,58.7,52.2,30.07,SW,217,4.0,7.0,79,0.00,,,0.00,Wunderground v.1.15,2013-04-17 05:13:00,
2013-04-17 01:18:00,58.6,52.1,30.07,West,261,4.0,8.0,79,0.00,,,0.00,Wunderground v.1.15,2013-04-17 05:18:00,
2013-04-17 01:24:00,58.5,52.0,30.07,West,281,3.0,7.0,79,0.00,,,0.00,Wunderground v.1.15,2013-04-17 05:24:00,
2013-04-17 01:30:00,58.3,52.2,30.07,SSW,200,5.0,5.0,80,0.00,,,0.00,Wunderground v.1.15,2013-04-17 05:30:00,
2013-04-17 01:35:00,58.2,52.1,30.07,SW,218,10.0,10.0,80,0.00,,,0.00,Wunderground v.1.15,2013-04-17 05:35:00,
2013-04-17 01:40:00,58.1,52.0,30.07,West,277,4.0,5.0,80,0.00,,,0.00,Wunderground v.1.15,2013-04-17 05:40:00,
2013-04-17 01:45:00,58.0,51.9,30.08,WSW,256,3.0,9.0,80,0.00,,,0.00,Wunderground v.1.15,2013-04-17 05:45:00,
2013-04-17 01:51:00,58.0,51.9,30.07,SW,219,9.0,9.0,80,0.00,,,0.00,Wunderground v.1.15,2013-04-17 05:51:00,
2013-04-17 01:56:00,58.0,51.9,30.07,WSW,244,5.0,11.0,80,0.00,,,0.00,Wunderground v.1.15,2013-04-17 05:56:00,
2013-04-17 02:02:00,58.1,52.0,30.07,SSW,200,5.0,8.0,80,0.00,,,0.00,Wunderground v.1.15,2013-04-17 06:02:00,
2013-04-17 02:07:00,58.0,51.9,30.07,WSW,242,2.0,11.0,80,0.00,,,0.00,Wunderground v.1.15,2013-04-17 06:07:00,
2013-04-17 02:13:00,58.0,51.9,30.08,WSW,241,3.0,7.0,80,0.00,,,0.00,Wunderground v.1.15,2013-04-17 06:13:00,
2013-04-17 02:19:00,57.9,51.8,30.07,SSW,212,9.0,9.0,80,0.00,,,0.00,Wunderground v.1.15,2013-04-17 06:19:00,
2013-04-17 02:24:00,57.8,51.3,30.07,West,262,3.0,5.0,79,0.00,,,0.00,Wunderground v.1.15,2013-04-17 06:24:00,
2013-04-17 02:30:00,57.7,50.9,30.07,West,269,6.0,6.0,78,0.00,,,0.00,Wunderground v.1.15,2013-04-17 06:30:00,
2013-04-17 02:35:00,57.6,50.1,30.07,West,268,2.0,10.0,76,0.00,,,0.00,Wunderground v.1.15,2013-04-17 06:35:00,
2013-04-17 02:41:00,57.5,49.3,30.08,West,279,2.0,7.0,74,0.00,,,0.00,Wunderground v.1.15,2013-04-17 06:41:00,
2013-04-17 02:46:00,57.5,49.3,30.08,WNW,287,2.0,7.0,74,0.00,,,0.00,Wunderground v.1.15,2013-04-17 06:46:00,
2013-04-17 02:52:00,57.3,48.3,30.08,West,280,3.0,4.0,72,0.00,,,0.00,Wunderground v.1.15,2013-04-17 06:52:00,
2013-04-17 02:58:00,57.2,47.5,30.08,SW,222,7.0,7.0,70,0.00,,,0.00,Wunderground v.1.15,2013-04-17 06:58:00,
2013-04-17 03:03:00,57.1,47.0,30.08,WSW,240,3.0,7.0,69,0.00,,,0.00,Wunderground v.1.15,2013-04-17 07:03:00,
2013-04-17 03:08:00,57.0,46.5,30.09,WSW,238,8.0,11.0,68,0.00,,,0.00,Wunderground v.1.15,2013-04-17 07:08:00,
2013-04-17 03:13:00,56.9,46.4,30.09,WNW,295,0.0,9.0,68,0.00,,,0.00,Wunderground v.1.15,2013-04-17 07:13:00,
2013-04-17 03:18:00,56.8,46.0,30.09,West,265,5.0,9.0,67,0.00,,,0.00,Wunderground v.1.15,2013-04-17 07:18:00,
2013-04-17 03:23:00,56.5,45.3,30.10,West,281,2.0,7.0,66,0.00,,,0.00,Wunderground v.1.15,2013-04-17 07:23:00,
2013-04-17 03:28:00,56.2,45.0,30.10,WSW,252,3.0,11.0,66,0.00,,,0.00,Wunderground v.1.15,2013-04-17 07:28:00,
2013-04-17 03:33:00,56.0,44.4,30.09,WNW,294,2.0,11.0,65,0.00,,,0.00,Wunderground v.1.15,2013-04-17 07:33:00,
2013-04-17 03:38:00,55.8,44.2,30.09,WNW,287,5.0,11.0,65,0.00,,,0.00,Wunderground v.1.15,2013-04-17 07:38:00,
2013-04-17 03:43:00,55.6,44.0,30.10,NNW,331,0.0,9.0,65,0.00,,,0.00,Wunderground v.1.15,2013-04-17 07:43:00,
2013-04-17 03:48:00,55.4,44.2,30.10,West,261,4.0,10.0,66,0.00,,,0.00,Wunderground v.1.15,2013-04-17 07:48:00,
2013-04-17 03:53:00,55.3,44.1,30.10,WNW,285,1.0,5.0,66,0.00,,,0.00,Wunderground v.1.15,2013-04-17 07:53:00,
2013-04-17 03:58:00,55.1,43.9,30.10,West,268,2.0,10.0,66,0.00,,,0.00,Wunderground v.1.15,2013-04-17 07:58:00,
2013-04-17 04:03:00,54.9,44.1,30.10,WNW,299,4.0,11.0,67,0.00,,,0.00,Wunderground v.1.15,2013-04-17 08:03:00,
2013-04-17 04:08:00,54.7,44.0,30.10,WNW,290,3.0,11.0,67,0.00,,,0.00,Wunderground v.1.15,2013-04-17 08:08:00,
2013-04-17 04:13:00,54.5,44.2,30.10,WNW,303,3.0,7.0,68,0.00,,,0.00,Wunderground v.1.15,2013-04-17 08:13:00,
2013-04-17 04:18:00,54.4,44.4,30.11,West,278,3.0,11.0,69,0.00,,,0.00,Wunderground v.1.15,2013-04-17 08:18:00,
2013-04-17 04:23:00,54.4,44.4,30.11,NW,321,2.0,12.0,69,0.00,,,0.00,Wunderground v.1.15,2013-04-17 08:23:00,
2013-04-17 04:28:00,54.4,44.4,30.11,WNW,294,9.0,13.0,69,0.00,,,0.00,Wunderground v.1.15,2013-04-17 08:28:00,
2013-04-17 04:33:00,54.4,44.4,30.11,West,276,4.0,15.0,69,0.00,,,0.00,Wunderground v.1.15,2013-04-17 08:33:00,
2013-04-17 04:38:00,54.4,44.4,30.11,NW,322,5.0,15.0,69,0.00,,,0.00,Wunderground v.1.15,2013-04-17 08:38:00,
2013-04-17 04:43:00,54.4,44.4,30.11,West,273,5.0,9.0,69,0.00,,,0.00,Wunderground v.1.15,2013-04-17 08:43:00,
2013-04-17 04:48:00,54.4,44.1,30.11,NNW,346,4.0,12.0,68,0.00,,,0.00,Wunderground v.1.15,2013-04-17 08:48:00,
2013-04-17 04:53:00,54.4,43.7,30.12,NW,314,6.0,12.0,67,0.00,,,0.00,Wunderground v.1.15,2013-04-17 08:53:00,
2013-04-17 04:58:00,54.4,43.3,30.12,NNW,348,7.0,14.0,66,0.00,,,0.00,Wunderground v.1.15,2013-04-17 08:58:00,
2013-04-17 05:03:00,54.3,42.8,30.12,WNW,298,5.0,12.0,65,0.00,,,0.00,Wunderground v.1.15,2013-04-17 09:03:00,
2013-04-17 05:08:00,54.2,42.7,30.12,NW,313,9.0,12.0,65,0.00,,,0.00,Wunderground v.1.15,2013-04-17 09:08:00,
2013-04-17 05:13:00,54.1,42.2,30.12,WNW,290,7.0,16.0,64,0.00,,,0.00,Wunderground v.1.15,2013-04-17 09:13:00,
2013-04-17 05:18:00,53.9,42.0,30.13,WNW,300,6.0,16.0,64,0.00,,,0.00,Wunderground v.1.15,2013-04-17 09:18:00,
2013-04-17 05:23:00,53.8,41.5,30.12,NNW,327,4.0,14.0,63,0.00,,,0.00,Wunderground v.1.15,2013-04-17 09:23:00,
2013-04-17 05:28:00,53.6,41.3,30.13,WNW,300,12.0,14.0,63,0.00,,,0.00,Wunderground v.1.15,2013-04-17 09:28:00,
2013-04-17 05:33:00,53.5,41.2,30.13,WNW,284,10.0,16.0,63,0.00,,,0.00,Wunderground v.1.15,2013-04-17 09:33:00,
2013-04-17 05:38:00,53.3,40.6,30.13,West,281,11.0,16.0,62,0.00,,,0.00,Wunderground v.1.15,2013-04-17 09:38:00,
2013-04-17 05:43:00,53.1,40.8,30.13,West,280,5.0,14.0,63,0.00,,,0.00,Wunderground v.1.15,2013-04-17 09:43:00,
2013-04-17 05:48:00,52.9,40.6,30.13,NW,308,9.0,16.0,63,0.00,,,0.00,Wunderground v.1.15,2013-04-17 09:48:00,
2013-04-17 05:53:00,52.7,40.5,30.13,WNW,302,10.0,13.0,63,0.00,,,0.00,Wunderground v.1.15,2013-04-17 09:53:00,
2013-04-17 05:58:00,52.6,40.4,30.14,NW,315,5.0,13.0,63,0.00,,,0.00,Wunderground v.1.15,2013-04-17 09:58:00,
2013-04-17 06:03:00,52.4,40.2,30.14,NW,310,4.0,11.0,63,0.00,,,0.00,Wunderground v.1.15,2013-04-17 10:03:00,
2013-04-17 06:08:00,52.3,40.1,30.14,NW,309,5.0,12.0,63,0.00,,,0.00,Wunderground v.1.15,2013-04-17 10:08:00,
2013-04-17 06:13:00,52.2,40.4,30.14,NNW,344,10.0,12.0,64,0.00,,,0.00,Wunderground v.1.15,2013-04-17 10:13:00,
2013-04-17 06:18:00,52.0,40.2,30.14,NW,319,4.0,13.0,64,0.00,,,0.00,Wunderground v.1.15,2013-04-17 10:18:00,
2013-04-17 06:23:00,51.9,40.1,30.14,NW,314,0.0,8.0,64,0.00,,,0.00,Wunderground v.1.15,2013-04-17 10:23:00,
2013-04-17 06:28:00,51.7,39.9,30.14,NW,323,6.0,11.0,64,0.00,,,0.00,Wunderground v.1.15,2013-04-17 10:28:00,
2013-04-17 06:33:00,51.7,40.3,30.15,WNW,288,8.0,9.0,65,0.00,,,0.00,Wunderground v.1.15,2013-04-17 10:33:00,
2013-04-17 06:38:00,51.6,40.2,30.15,NW,310,0.0,10.0,65,0.00,,,0.00,Wunderground v.1.15,2013-04-17 10:38:00,
2013-04-17 06:43:00,51.6,40.2,30.15,North,355,2.0,6.0,65,0.00,,,0.00,Wunderground v.1.15,2013-04-17 10:43:00,
2013-04-17 06:48:00,51.6,40.2,30.16,North,355,6.0,11.0,65,0.00,,,0.00,Wunderground v.1.15,2013-04-17 10:48:00,
2013-04-17 06:53:00,51.7,40.3,30.16,NW,319,7.0,12.0,65,0.00,,,0.00,Wunderground v.1.15,2013-04-17 10:53:00,
2013-04-17 06:58:00,51.9,40.5,30.16,NNW,330,3.0,12.0,65,0.00,,,0.00,Wunderground v.1.15,2013-04-17 10:58:00,
2013-04-17 07:03:00,52.2,40.4,30.16,North,355,2.0,6.0,64,0.00,,,0.00,Wunderground v.1.15,2013-04-17 11:03:00,
2013-04-17 07:08:00,52.5,40.7,30.17,NW,312,5.0,9.0,64,0.00,,,0.00,Wunderground v.1.15,2013-04-17 11:08:00,
2013-04-17 07:13:00,52.8,40.5,30.17,NNW,344,1.0,9.0,63,0.00,,,0.00,Wunderground v.1.15,2013-04-17 11:13:00,
2013-04-17 07:18:00,53.0,40.7,30.17,WNW,288,2.0,11.0,63,0.00,,,0.00,Wunderground v.1.15,2013-04-17 11:18:00,
2013-04-17 07:23:00,52.9,40.6,30.17,WNW,300,3.0,10.0,63,0.00,,,0.00,Wunderground v.1.15,2013-04-17 11:23:00,
2013-04-17 07:28:00,52.7,40.5,30.18,NW,306,7.0,12.0,63,0.00,,,0.00,Wunderground v.1.15,2013-04-17 11:28:00,
2013-04-17 07:33:00,53.2,40.5,30.18,NW,306,4.0,9.0,62,0.00,,,0.00,Wunderground v.1.15,2013-04-17 11:33:00,
2013-04-17 07:38:00,53.5,40.8,30.18,NNW,331,10.0,11.0,62,0.00,,,0.00,Wunderground v.1.15,2013-04-17 11:38:00,
2013-04-17 07:43:00,53.6,40.5,30.18,NW,304,7.0,13.0,61,0.00,,,0.00,Wunderground v.1.15,2013-04-17 11:43:00,
2013-04-17 07:48:00,53.6,40.5,30.18,NNW,327,7.0,13.0,61,0.00,,,0.00,Wunderground v.1.15,2013-04-17 11:48:00,
2013-04-17 07:53:00,54.1,40.9,30.18,NW,317,6.0,9.0,61,0.00,,,0.00,Wunderground v.1.15,2013-04-17 11:53:00,
2013-04-17 07:58:00,54.7,41.5,30.19,WNW,286,3.0,9.0,61,0.00,,,0.00,Wunderground v.1.15,2013-04-17 11:58:00,
2013-04-17 08:03:00,55.3,41.2,30.19,WNW,283,6.0,13.0,59,0.00,,,0.00,Wunderground v.1.15,2013-04-17 12:03:00,
2013-04-17 08:08:00,55.6,40.6,30.19,WNW,282,9.0,13.0,57,0.00,,,0.00,Wunderground v.1.15,2013-04-17 12:08:00,
2013-04-17 08:14:00,55.8,41.2,30.19,WNW,290,9.0,13.0,58,0.00,,,0.00,Wunderground v.1.15,2013-04-17 12:14:00,
2013-04-17 08:19:00,55.8,40.8,30.19,WNW,284,6.0,14.0,57,0.00,,,0.00,Wunderground v.1.15,2013-04-17 12:19:00,
2013-04-17 08:24:00,55.5,40.5,30.19,NW,307,9.0,12.0,57,0.00,,,0.00,Wunderground v.1.15,2013-04-17 12:24:00,
2013-04-17 08:29:00,55.0,39.6,30.19,NW,317,4.0,13.0,56,0.00,,,0.00,Wunderground v.1.15,2013-04-17 12:29:00,
2013-04-17 08:34:00,54.3,39.4,30.20,NW,313,12.0,15.0,57,0.00,,,0.00,Wunderground v.1.15,2013-04-17 12:34:00,
2013-04-17 08:39:00,54.7,39.3,30.20,WNW,297,12.0,15.0,56,0.00,,,0.00,Wunderground v.1.15,2013-04-17 12:39:00,
2013-04-17 08:44:00,54.6,39.2,30.20,WNW,302,9.0,13.0,56,0.00,,,0.00,Wunderground v.1.15,2013-04-17 12:44:00,
2013-04-17 08:49:00,54.2,37.9,30.20,WNW,283,11.0,13.0,54,0.00,,,0.00,Wunderground v.1.15,2013-04-17 12:49:00,
2013-04-17 08:54:00,53.7,37.0,30.20,NW,319,3.0,13.0,53,0.00,,,0.00,Wunderground v.1.15,2013-04-17 12:54:00,
2013-04-17 08:59:00,53.8,36.6,30.20,WNW,296,7.0,13.0,52,0.00,,,0.00,Wunderground v.1.15,2013-04-17 12:59:00,
2013-04-17 09:04:00,54.0,36.8,30.20,NW,317,10.0,14.0,52,0.00,,,0.00,Wunderground v.1.15,2013-04-17 13:04:00,
2013-04-17 09:09:00,54.2,35.9,30.20,NW,304,6.0,15.0,50,0.00,,,0.00,Wunderground v.1.15,2013-04-17 13:09:00,
2013-04-17 09:14:00,55.1,36.3,30.20,WNW,303,5.0,12.0,49,0.00,,,0.00,Wunderground v.1.15,2013-04-17 13:14:00,
2013-04-17 09:19:00,55.4,35.5,30.20,North,5,5.0,13.0,47,0.00,,,0.00,Wunderground v.1.15,2013-04-17 13:19:00,
2013-04-17 09:24:00,55.4,36.0,30.20,NW,306,10.0,11.0,48,0.00,,,0.00,Wunderground v.1.15,2013-04-17 13:24:00,
2013-04-17 09:29:00,55.4,35.5,30.20,NW,308,10.0,11.0,47,0.00,,,0.00,Wunderground v.1.15,2013-04-17 13:29:00,
2013-04-17 09:34:00,55.2,34.8,30.20,NW,307,11.0,12.0,46,0.00,,,0.00,Wunderground v.1.15,2013-04-17 13:34:00,
2013-04-17 09:39:00,55.2,34.8,30.20,WNW,294,6.0,12.0,46,0.00,,,0.00,Wunderground v.1.15,2013-04-17 13:39:00,
2013-04-17 09:44:00,55.1,35.2,30.20,NNW,333,5.0,10.0,47,0.00,,,0.00,Wunderground v.1.15,2013-04-17 13:44:00,
2013-04-17 09:49:00,55.1,34.1,30.20,WNW,300,12.0,13.0,45,0.00,,,0.00,Wunderground v.1.15,2013-04-17 13:49:00,
2013-04-17 09:54:00,55.8,34.2,30.20,NW,311,6.0,17.0,44,0.00,,,0.00,Wunderground v.1.15,2013-04-17 13:54:00,
2013-04-17 09:59:00,55.9,34.3,30.20,NW,307,12.0,17.0,44,0.00,,,0.00,Wunderground v.1.15,2013-04-17 13:59:00,
2013-04-17 10:04:00,56.3,34.1,30.20,WNW,298,12.0,14.0,43,0.00,,,0.00,Wunderground v.1.15,2013-04-17 14:04:00,
2013-04-17 10:09:00,56.7,33.8,30.21,North,360,8.0,17.0,42,0.00,,,0.00,Wunderground v.1.15,2013-04-17 14:09:00,
2013-04-17 10:14:00,57.1,33.6,30.21,NNW,331,5.0,13.0,41,0.00,,,0.00,Wunderground v.1.15,2013-04-17 14:14:00,
2013-04-17 10:19:00,56.4,33.6,30.21,NE,37,10.0,13.0,42,0.00,,,0.00,Wunderground v.1.15,2013-04-17 14:19:00,
2013-04-17 10:24:00,56.2,34.0,30.21,NNW,342,4.0,12.0,43,0.00,,,0.00,Wunderground v.1.15,2013-04-17 14:24:00,
2013-04-17 10:29:00,56.4,33.6,30.21,NNE,15,2.0,12.0,42,0.00,,,0.00,Wunderground v.1.15,2013-04-17 14:29:00,
2013-04-17 10:34:00,57.3,35.0,30.21,WNW,300,8.0,10.0,43,0.00,,,0.00,Wunderground v.1.15,2013-04-17 14:34:00,
2013-04-17 10:39:00,57.9,33.1,30.20,North,350,7.0,11.0,39,0.00,,,0.00,Wunderground v.1.15,2013-04-17 14:39:00,
2013-04-17 10:44:00,57.4,34.5,30.21,WNW,299,10.0,11.0,42,0.00,,,0.00,Wunderground v.1.15,2013-04-17 14:44:00,
2013-04-17 10:49:00,57.7,33.5,30.21,NW,323,6.0,15.0,40,0.00,,,0.00,Wunderground v.1.15,2013-04-17 14:49:00,
2013-04-17 10:54:00,58.3,33.4,30.20,North,355,12.0,12.0,39,0.00,,,0.00,Wunderground v.1.15,2013-04-17 14:54:00,
2013-04-17 10:59:00,58.4,34.2,30.21,NNW,340,4.0,13.0,40,0.00,,,0.00,Wunderground v.1.15,2013-04-17 14:59:00,
2013-04-17 11:04:00,58.5,33.6,30.21,North,355,5.0,14.0,39,0.00,,,0.00,Wunderground v.1.15,2013-04-17 15:04:00,
2013-04-17 11:09:00,58.4,34.2,30.21,North,9,10.0,14.0,40,0.00,,,0.00,Wunderground v.1.15,2013-04-17 15:09:00,
2013-04-17 11:14:00,58.8,34.5,30.21,West,277,6.0,11.0,40,0.00,,,0.00,Wunderground v.1.15,2013-04-17 15:14:00,
2013-04-17 11:19:00,59.5,33.9,30.21,North,360,8.0,13.0,38,0.00,,,0.00,Wunderground v.1.15,2013-04-17 15:19:00,
2013-04-17 11:24:00,59.0,33.4,30.21,NW,318,6.0,18.0,38,0.00,,,0.00,Wunderground v.1.15,2013-04-17 15:24:00,
2013-04-17 11:29:00,59.0,33.4,30.21,WNW,286,5.0,18.0,38,0.00,,,0.00,Wunderground v.1.15,2013-04-17 15:29:00,
2013-04-17 11:34:00,59.9,34.2,30.21,NW,306,11.0,20.0,38,0.00,,,0.00,Wunderground v.1.15,2013-04-17 15:34:00,
2013-04-17 11:39:00,60.3,33.9,30.21,NW,318,5.0,20.0,37,0.00,,,0.00,Wunderground v.1.15,2013-04-17 15:39:00,
2013-04-17 11:44:00,60.5,34.7,30.20,NNE,15,4.0,12.0,38,0.00,,,0.00,Wunderground v.1.15,2013-04-17 15:44:00,
2013-04-17 11:50:00,60.5,34.1,30.20,NW,315,7.0,7.0,37,0.00,,,0.00,Wunderground v.1.15,2013-04-17 15:50:00,
2013-04-17 11:55:00,60.7,34.3,30.20,WNW,290,6.0,12.0,37,0.00,,,0.00,Wunderground v.1.15,2013-04-17 15:55:00,
2013-04-17 12:00:00,60.4,34.7,30.20,WNW,288,4.0,7.0,38,0.00,,,0.00,Wunderground v.1.15,2013-04-17 16:00:00,
2013-04-17 12:05:00,60.9,34.4,30.20,West,261,4.0,11.0,37,0.00,,,0.00,Wunderground v.1.15,2013-04-17 16:05:00,
2013-04-17 12:10:00,60.8,35.0,30.20,NNE,14,0.0,4.0,38,0.00,,,0.00,Wunderground v.1.15,2013-04-17 16:10:00,
2013-04-17 12:15:00,60.6,36.8,30.20,West,268,5.0,14.0,41,0.00,,,0.00,Wunderground v.1.15,2013-04-17 16:15:00,
2013-04-17 12:20:00,61.6,36.4,30.20,WNW,289,11.0,15.0,39,0.00,,,0.00,Wunderground v.1.15,2013-04-17 16:20:00,
2013-04-17 12:25:00,61.8,35.2,30.20,WNW,283,0.0,15.0,37,0.00,,,0.00,Wunderground v.1.15,2013-04-17 16:25:00,
2013-04-17 12:30:00,61.9,34.6,30.20,NE,44,11.0,11.0,36,0.00,,,0.00,Wunderground v.1.15,2013-04-17 16:30:00,
2013-04-17 12:35:00,61.2,34.0,30.19,NW,306,5.0,13.0,36,0.00,,,0.00,Wunderground v.1.15,2013-04-17 16:35:00,
2013-04-17 12:40:00,61.4,34.2,30.19,NNW,336,5.0,6.0,36,0.00,,,0.00,Wunderground v.1.15,2013-04-17 16:40:00,
2013-04-17 12:45:00,61.6,34.4,30.19,NE,56,2.0,8.0,36,0.00,,,0.00,Wunderground v.1.15,2013-04-17 16:45:00,
2013-04-17 12:50:00,61.3,36.1,30.20,WNW,302,5.0,6.0,39,0.00,,,0.00,Wunderground v.1.15,2013-04-17 16:50:00,
2013-04-17 12:55:00,62.2,35.6,30.19,NW,316,7.0,12.0,37,0.00,,,0.00,Wunderground v.1.15,2013-04-17 16:55:00,
2013-04-17 13:00:00,63.0,34.9,30.19,NNE,32,6.0,9.0,35,0.00,,,0.00,Wunderground v.1.15,2013-04-17 17:00:00,
2013-04-17 13:05:00,62.7,33.9,30.19,NNE,28,6.0,11.0,34,0.00,,,0.00,Wunderground v.1.15,2013-04-17 17:05:00,
2013-04-17 13:10:00,62.6,35.3,30.19,NW,313,7.0,10.0,36,0.00,,,0.00,Wunderground v.1.15,2013-04-17 17:10:00,
2013-04-17 13:15:00,62.5,34.5,30.19,NW,309,0.0,13.0,35,0.00,,,0.00,Wunderground v.1.15,2013-04-17 17:15:00,
2013-04-17 13:20:00,62.7,35.3,30.19,NW,323,8.0,8.0,36,0.00,,,0.00,Wunderground v.1.15,2013-04-17 17:20:00,
2013-04-17 13:25:00,62.5,35.2,30.19,North,360,8.0,12.0,36,0.00,,,0.00,Wunderground v.1.15,2013-04-17 17:25:00,
2013-04-17 13:30:00,62.1,36.2,30.19,NNW,338,5.0,7.0,38,0.00,,,0.00,Wunderground v.1.15,2013-04-17 17:30:00,
2013-04-17 13:35:00,62.6,35.3,30.19,NNE,30,5.0,9.0,36,0.00,,,0.00,Wunderground v.1.15,2013-04-17 17:35:00,
2013-04-17 13:40:00,63.0,38.3,30.19,WNW,292,1.0,4.0,40,0.00,,,0.00,Wunderground v.1.15,2013-04-17 17:40:00,
2013-04-17 13:45:00,63.9,36.4,30.18,WNW,284,1.0,9.0,36,0.00,,,0.00,Wunderground v.1.15,2013-04-17 17:45:00,
2013-04-17 13:50:00,64.0,34.3,30.19,NNW,331,4.0,6.0,33,0.00,,,0.00,Wunderground v.1.15,2013-04-17 17:50:00,
2013-04-17 13:55:00,63.8,34.9,30.19,NW,309,8.0,14.0,34,0.00,,,0.00,Wunderground v.1.15,2013-04-17 17:55:00,
2013-04-17 14:00:00,64.1,35.9,30.19,NW,318,4.0,6.0,35,0.00,,,0.00,Wunderground v.1.15,2013-04-17 18:00:00,
2013-04-17 14:05:00,64.4,33.9,30.19,NNE,23,4.0,12.0,32,0.00,,,0.00,Wunderground v.1.15,2013-04-17 18:05:00,
2013-04-17 14:10:00,64.5,35.5,30.19,NW,326,6.0,6.0,34,0.00,,,0.00,Wunderground v.1.15,2013-04-17 18:10:00,
2013-04-17 14:15:00,64.6,34.1,30.19,North,350,11.0,11.0,32,0.00,,,0.00,Wunderground v.1.15,2013-04-17 18:15:00,
2013-04-17 14:20:00,64.2,33.7,30.19,North,360,13.0,13.0,32,0.00,,,0.00,Wunderground v.1.15,2013-04-17 18:20:00,
2013-04-17 14:25:00,63.8,33.4,30.19,NW,313,7.0,13.0,32,0.00,,,0.00,Wunderground v.1.15,2013-04-17 18:25:00,
2013-04-17 14:30:00,64.2,34.5,30.19,ENE,59,1.0,6.0,33,0.00,,,0.00,Wunderground v.1.15,2013-04-17 18:30:00,
2013-04-17 14:35:00,64.3,33.8,30.19,North,355,4.0,10.0,32,0.00,,,0.00,Wunderground v.1.15,2013-04-17 18:35:00,
2013-04-17 14:40:00,64.6,34.1,30.19,North,360,3.0,5.0,32,0.00,,,0.00,Wunderground v.1.15,2013-04-17 18:40:00,
2013-04-17 14:45:00,64.5,33.2,30.19,NE,37,9.0,13.0,31,0.00,,,0.00,Wunderground v.1.15,2013-04-17 18:45:00,
2013-04-17 14:50:00,64.1,32.8,30.19,WNW,303,10.0,10.0,31,0.00,,,0.00,Wunderground v.1.15,2013-04-17 18:50:00,
2013-04-17 14:55:00,63.9,32.6,30.19,NW,316,4.0,13.0,31,0.00,,,0.00,Wunderground v.1.15,2013-04-17 18:55:00,
2013-04-17 15:00:00,64.1,34.4,30.20,WNW,292,12.0,13.0,33,0.00,,,0.00,Wunderground v.1.15,2013-04-17 19:00:00,
2013-04-17 15:05:00,64.9,33.5,30.19,NW,310,8.0,17.0,31,0.00,,,0.00,Wunderground v.1.15,2013-04-17 19:05:00,
2013-04-17 15:10:00,64.3,33.0,30.20,WNW,301,5.0,9.0,31,0.00,,,0.00,Wunderground v.1.15,2013-04-17 19:10:00,
2013-04-17 15:15:00,64.3,33.8,30.19,North,5,7.0,12.0,32,0.00,,,0.00,Wunderground v.1.15,2013-04-17 19:15:00,
2013-04-17 15:20:00,64.8,32.6,30.19,North,350,5.0,9.0,30,0.00,,,0.00,Wunderground v.1.15,2013-04-17 19:20:00,
2013-04-17 15:25:00,64.5,33.2,30.20,WNW,298,6.0,16.0,31,0.00,,,0.00,Wunderground v.1.15,2013-04-17 19:25:00,
2013-04-17 15:30:00,64.5,32.4,30.20,NW,310,5.0,9.0,30,0.00,,,0.00,Wunderground v.1.15,2013-04-17 19:30:00,
2013-04-17 15:35:00,64.8,32.6,30.20,WNW,296,9.0,19.0,30,0.00,,,0.00,Wunderground v.1.15,2013-04-17 19:35:00,
2013-04-17 15:40:00,65.4,34.0,30.20,WNW,298,6.0,8.0,31,0.00,,,0.00,Wunderground v.1.15,2013-04-17 19:40:00,
2013-04-17 15:45:00,65.2,32.1,30.20,NNE,22,3.0,13.0,29,0.00,,,0.00,Wunderground v.1.15,2013-04-17 19:45:00,
2013-04-17 15:50:00,65.1,32.9,30.20,North,360,9.0,13.0,30,0.00,,,0.00,Wunderground v.1.15,2013-04-17 19:50:00,
2013-04-17 15:55:00,65.0,31.9,30.20,NNW,334,3.0,13.0,29,0.00,,,0.00,Wunderground v.1.15,2013-04-17 19:55:00,
2013-04-17 16:00:00,64.8,32.6,30.20,North,360,8.0,9.0,30,0.00,,,0.00,Wunderground v.1.15,2013-04-17 20:00:00,
2013-04-17 16:05:00,64.0,31.9,30.20,NNW,347,6.0,13.0,30,0.00,,,0.00,Wunderground v.1.15,2013-04-17 20:05:00,
2013-04-17 16:10:00,64.0,33.5,30.20,NNE,30,8.0,12.0,32,0.00,,,0.00,Wunderground v.1.15,2013-04-17 20:10:00,
2013-04-17 16:15:00,64.2,32.9,30.21,WNW,296,16.0,16.0,31,0.00,,,0.00,Wunderground v.1.15,2013-04-17 20:15:00,
2013-04-17 16:20:00,64.6,32.4,30.21,WNW,302,7.0,13.0,30,0.00,,,0.00,Wunderground v.1.15,2013-04-17 20:20:00,
2013-04-17 16:25:00,64.7,32.5,30.21,NNW,333,1.0,13.0,30,0.00,,,0.00,Wunderground v.1.15,2013-04-17 20:25:00,
2013-04-17 16:30:00,64.7,32.5,30.21,NW,315,5.0,12.0,30,0.00,,,0.00,Wunderground v.1.15,2013-04-17 20:30:00,
2013-04-17 16:35:00,64.7,32.5,30.21,NNW,331,12.0,13.0,30,0.00,,,0.00,Wunderground v.1.15,2013-04-17 20:35:00,
2013-04-17 16:40:00,64.4,32.3,30.21,NW,317,10.0,13.0,30,0.00,,,0.00,Wunderground v.1.15,2013-04-17 20:40:00,
2013-04-17 16:45:00,64.7,31.7,30.21,NNW,329,12.0,15.0,29,0.00,,,0.00,Wunderground v.1.15,2013-04-17 20:45:00,
2013-04-17 16:50:00,65.0,31.9,30.21,NNW,346,5.0,11.0,29,0.00,,,0.00,Wunderground v.1.15,2013-04-17 20:50:00,
2013-04-17 16:55:00,64.3,33.0,30.22,NNW,333,2.0,16.0,31,0.00,,,0.00,Wunderground v.1.15,2013-04-17 20:55:00,
2013-04-17 17:00:00,64.6,32.4,30.22,NW,323,6.0,7.0,30,0.00,,,0.00,Wunderground v.1.15,2013-04-17 21:00:00,
2013-04-17 17:05:00,64.4,31.4,30.22,NW,319,6.0,14.0,29,0.00,,,0.00,Wunderground v.1.15,2013-04-17 21:05:00,
2013-04-17 17:10:00,64.2,32.1,30.22,NNW,337,10.0,11.0,30,0.00,,,0.00,Wunderground v.1.15,2013-04-17 21:10:00,
2013-04-17 17:15:00,64.1,32.0,30.23,NNW,327,3.0,11.0,30,0.00,,,0.00,Wunderground v.1.15,2013-04-17 21:15:00,
2013-04-17 17:20:00,64.3,32.2,30.23,NW,315,7.0,8.0,30,0.00,,,0.00,Wunderground v.1.15,2013-04-17 21:20:00,
2013-04-17 17:25:00,64.3,32.2,30.23,NW,311,9.0,13.0,30,0.00,,,0.00,Wunderground v.1.15,2013-04-17 21:25:00,
2013-04-17 17:30:00,64.3,32.2,30.23,NNW,341,4.0,8.0,30,0.00,,,0.00,Wunderground v.1.15,2013-04-17 21:30:00,
2013-04-17 17:35:00,64.2,32.1,30.23,NW,311,6.0,14.0,30,0.00,,,0.00,Wunderground v.1.15,2013-04-17 21:35:00,
2013-04-17 17:40:00,64.1,32.8,30.24,NNW,340,5.0,7.0,31,0.00,,,0.00,Wunderground v.1.15,2013-04-17 21:40:00,
2013-04-17 17:45:00,64.0,32.7,30.24,North,355,6.0,7.0,31,0.00,,,0.00,Wunderground v.1.15,2013-04-17 21:45:00,
2013-04-17 17:50:00,63.9,33.4,30.24,North,355,4.0,5.0,32,0.00,,,0.00,Wunderground v.1.15,2013-04-17 21:50:00,
2013-04-17 17:55:00,63.5,32.3,30.25,NW,323,12.0,13.0,31,0.00,,,0.00,Wunderground v.1.15,2013-04-17 21:55:00,
2013-04-17 18:00:00,63.2,32.0,30.25,North,350,4.0,6.0,31,0.00,,,0.00,Wunderground v.1.15,2013-04-17 22:00:00,
2013-04-17 18:05:00,63.0,31.9,30.25,NNW,327,4.0,9.0,31,0.00,,,0.00,Wunderground v.1.15,2013-04-17 22:05:00,
2013-04-17 18:10:00,62.6,31.5,30.25,NE,40,3.0,8.0,31,0.00,,,0.00,Wunderground v.1.15,2013-04-17 22:10:00,
2013-04-17 18:15:00,62.2,31.2,30.25,NE,38,4.0,13.0,31,0.00,,,0.00,Wunderground v.1.15,2013-04-17 22:15:00,
2013-04-17 18:20:00,61.8,30.8,30.25,North,360,5.0,10.0,31,0.00,,,0.00,Wunderground v.1.15,2013-04-17 22:20:00,
2013-04-17 18:25:00,61.6,31.4,30.26,NNW,346,2.0,11.0,32,0.00,,,0.00,Wunderground v.1.15,2013-04-17 22:25:00,
2013-04-17 18:30:00,61.4,31.3,30.26,NNE,28,7.0,11.0,32,0.00,,,0.00,Wunderground v.1.15,2013-04-17 22:30:00,
2013-04-17 18:35:00,61.3,31.2,30.26,NNE,26,13.0,13.0,32,0.00,,,0.00,Wunderground v.1.15,2013-04-17 22:35:00,
2013-04-17 18:40:00,61.1,31.0,30.26,North,9,4.0,9.0,32,0.00,,,0.00,Wunderground v.1.15,2013-04-17 22:40:00,
2013-04-17 18:45:00,61.0,31.7,30.26,NNE,23,4.0,10.0,33,0.00,,,0.00,Wunderground v.1.15,2013-04-17 22:45:00,
2013-04-17 18:50:00,60.8,31.5,30.27,NNE,13,10.0,10.0,33,0.00,,,0.00,Wunderground v.1.15,2013-04-17 22:50:00,
2013-04-17 18:56:00,60.6,31.3,30.27,NNW,348,6.0,11.0,33,0.00,,,0.00,Wunderground v.1.15,2013-04-17 22:56:00,
2013-04-17 19:01:00,60.4,31.1,30.27,North,355,2.0,5.0,33,0.00,,,0.00,Wunderground v.1.15,2013-04-17 23:01:00,
2013-04-17 19:06:00,60.2,31.7,30.27,NNE,15,1.0,9.0,34,0.00,,,0.00,Wunderground v.1.15,2013-04-17 23:06:00,
2013-04-17 19:11:00,60.1,31.6,30.27,NNE,15,5.0,5.0,34,0.00,,,0.00,Wunderground v.1.15,2013-04-17 23:11:00,
2013-04-17 19:16:00,60.0,31.5,30.27,North,9,7.0,11.0,34,0.00,,,0.00,Wunderground v.1.15,2013-04-17 23:16:00,
2013-04-17 19:21:00,59.8,31.3,30.27,NNW,337,6.0,7.0,34,0.00,,,0.00,Wunderground v.1.15,2013-04-17 23:21:00,
2013-04-17 19:26:00,59.5,31.1,30.28,NNW,343,3.0,9.0,34,0.00,,,0.00,Wunderground v.1.15,2013-04-17 23:26:00,
2013-04-17 19:31:00,59.3,31.6,30.28,NNW,335,9.0,9.0,35,0.00,,,0.00,Wunderground v.1.15,2013-04-17 23:31:00,
2013-04-17 19:36:00,59.0,31.4,30.28,NNW,327,5.0,9.0,35,0.00,,,0.00,Wunderground v.1.15,2013-04-17 23:36:00,
2013-04-17 19:41:00,59.0,31.4,30.28,NNW,329,3.0,4.0,35,0.00,,,0.00,Wunderground v.1.15,2013-04-17 23:41:00,
2013-04-17 19:46:00,59.0,32.1,30.28,NW,311,4.0,6.0,36,0.00,,,0.00,Wunderground v.1.15,2013-04-17 23:46:00,
2013-04-17 19:51:00,58.9,32.0,30.29,NNW,346,3.0,6.0,36,0.00,,,0.00,Wunderground v.1.15,2013-04-17 23:51:00,
2013-04-17 19:56:00,58.6,31.7,30.29,NNW,334,3.0,7.0,36,0.00,,,0.00,Wunderground v.1.15,2013-04-17 23:56:00,
2013-04-17 20:01:00,58.4,31.5,30.29,NNW,345,2.0,4.0,36,0.00,,,0.00,Wunderground v.1.15,2013-04-18 00:01:00,
2013-04-17 20:06:00,58.2,31.3,30.30,NNW,344,3.0,6.0,36,0.00,,,0.00,Wunderground v.1.15,2013-04-18 00:06:00,
2013-04-17 20:11:00,58.1,31.9,30.30,NNE,19,3.0,6.0,37,0.00,,,0.00,Wunderground v.1.15,2013-04-18 00:11:00,
2013-04-17 20:16:00,57.9,31.8,30.31,NNW,339,4.0,8.0,37,0.00,,,0.00,Wunderground v.1.15,2013-04-18 00:16:00,
2013-04-17 20:21:00,57.7,32.2,30.31,NNE,29,0.0,7.0,38,0.00,,,0.00,Wunderground v.1.15,2013-04-18 00:21:00,
2013-04-17 20:26:00,57.5,32.1,30.31,NNE,20,2.0,10.0,38,0.00,,,0.00,Wunderground v.1.15,2013-04-18 00:26:00,
2013-04-17 20:31:00,57.2,31.1,30.31,NNW,345,6.0,6.0,37,0.00,,,0.00,Wunderground v.1.15,2013-04-18 00:31:00,
2013-04-17 20:36:00,56.9,31.5,30.31,NE,52,4.0,10.0,38,0.00,,,0.00,Wunderground v.1.15,2013-04-18 00:36:00,
2013-04-17 20:41:00,56.7,31.4,30.32,North,5,2.0,6.0,38,0.00,,,0.00,Wunderground v.1.15,2013-04-18 00:41:00,
2013-04-17 20:46:00,56.5,31.2,30.32,NNE,32,4.0,6.0,38,0.00,,,0.00,Wunderground v.1.15,2013-04-18 00:46:00,
2013-04-17 20:51:00,56.3,31.6,30.32,NE,45,1.0,5.0,39,0.00,,,0.00,Wunderground v.1.15,2013-04-18 00:51:00,
2013-04-17 20:56:00,56.1,31.5,30.32,North,5,3.0,5.0,39,0.00,,,0.00,Wunderground v.1.15,2013-04-18 00:56:00,
2013-04-17 21:01:00,55.9,31.3,30.33,North,5,1.0,4.0,39,0.00,,,0.00,Wunderground v.1.15,2013-04-18 01:01:00,
2013-04-17 21:06:00,55.7,31.7,30.33,NNE,17,4.0,6.0,40,0.00,,,0.00,Wunderground v.1.15,2013-04-18 01:06:00,
2013-04-17 21:11:00,55.4,30.8,30.33,NNE,21,5.0,6.0,39,0.00,,,0.00,Wunderground v.1.15,2013-04-18 01:11:00,
2013-04-17 21:16:00,55.2,31.3,30.32,NNE,27,3.0,7.0,40,0.00,,,0.00,Wunderground v.1.15,2013-04-18 01:16:00,
2013-04-17 21:21:00,55.1,31.2,30.33,NNE,19,5.0,6.0,40,0.00,,,0.00,Wunderground v.1.15,2013-04-18 01:21:00,
2013-04-17 21:26:00,54.9,30.4,30.33,North,350,1.0,9.0,39,0.00,,,0.00,Wunderground v.1.15,2013-04-18 01:26:00,
2013-04-17 21:31:00,54.8,30.3,30.33,North,11,5.0,10.0,39,0.00,,,0.00,Wunderground v.1.15,2013-04-18 01:31:00,
2013-04-17 21:36:00,54.6,30.1,30.33,NNE,22,2.0,10.0,39,0.00,,,0.00,Wunderground v.1.15,2013-04-18 01:36:00,
2013-04-17 21:41:00,54.4,30.6,30.33,NNE,22,3.0,3.0,40,0.00,,,0.00,Wunderground v.1.15,2013-04-18 01:41:00,
2013-04-17 21:46:00,54.1,30.3,30.33,NNE,22,3.0,4.0,40,0.00,,,0.00,Wunderground v.1.15,2013-04-18 01:46:00,
2013-04-17 21:51:00,54.0,30.2,30.33,North,360,3.0,4.0,40,0.00,,,0.00,Wunderground v.1.15,2013-04-18 01:51:00,
2013-04-17 21:56:00,53.9,30.1,30.33,North,10,1.0,5.0,40,0.00,,,0.00,Wunderground v.1.15,2013-04-18 01:56:00,
2013-04-17 22:01:00,53.6,30.4,30.33,North,11,0.0,2.0,41,0.00,,,0.00,Wunderground v.1.15,2013-04-18 02:01:00,
2013-04-17 22:06:00,53.3,30.2,30.34,North,11,2.0,2.0,41,0.00,,,0.00,Wunderground v.1.15,2013-04-18 02:06:00,
2013-04-17 22:11:00,53.0,29.9,30.33,North,11,0.0,4.0,41,0.00,,,0.00,Wunderground v.1.15,2013-04-18 02:11:00,
2013-04-17 22:16:00,52.8,29.7,30.33,North,10,2.0,4.0,41,0.00,,,0.00,Wunderground v.1.15,2013-04-18 02:16:00,
2013-04-17 22:21:00,52.6,29.5,30.33,North,11,1.0,2.0,41,0.00,,,0.00,Wunderground v.1.15,2013-04-18 02:21:00,
2013-04-17 22:26:00,52.4,30.0,30.33,North,10,2.0,3.0,42,0.00,,,0.00,Wunderground v.1.15,2013-04-18 02:26:00,
2013-04-17 22:31:00,52.3,29.9,30.33,North,10,0.0,2.0,42,0.00,,,0.00,Wunderground v.1.15,2013-04-18 02:31:00,
2013-04-17 22:36:00,52.1,30.3,30.34,NNW,348,0.0,4.0,43,0.00,,,0.00,Wunderground v.1.15,2013-04-18 02:36:00,
2013-04-17 22:41:00,51.8,30.0,30.34,NNW,348,0.0,3.0,43,0.00,,,0.00,Wunderground v.1.15,2013-04-18 02:41:00,
2013-04-17 22:46:00,51.7,29.9,30.34,NNE,22,1.0,3.0,43,0.00,,,0.00,Wunderground v.1.15,2013-04-18 02:46:00,
2013-04-17 22:51:00,51.5,29.7,30.35,NNE,22,1.0,2.0,43,0.00,,,0.00,Wunderground v.1.15,2013-04-18 02:51:00,
2013-04-17 22:56:00,51.3,30.1,30.34,NNE,22,0.0,2.0,44,0.00,,,0.00,Wunderground v.1.15,2013-04-18 02:56:00,
2013-04-17 23:01:00,51.0,29.8,30.34,NNE,22,0.0,0.0,44,0.00,,,0.00,Wunderground v.1.15,2013-04-18 03:01:00,
2013-04-17 23:06:00,50.6,30.0,30.34,NNE,22,0.0,1.0,45,0.00,,,0.00,Wunderground v.1.15,2013-04-18 03:06:00,
2013-04-17 23:11:00,50.1,29.6,30.33,NNE,22,0.0,1.0,45,0.00,,,0.00,Wunderground v.1.15,2013-04-18 03:11:00,
2013-04-17 23:16:00,49.8,29.3,30.33,NNE,22,0.0,2.0,45,0.00,,,0.00,Wunderground v.1.15,2013-04-18 03:16:00,
2013-04-17 23:21:00,49.4,30.5,30.33,NNE,22,0.0,1.0,48,0.00,,,0.00,Wunderground v.1.15,2013-04-18 03:21:00,
2013-04-17 23:26:00,48.8,31.0,30.34,NNE,22,1.0,2.0,50,0.00,,,0.00,Wunderground v.1.15,2013-04-18 03:26:00,
2013-04-17 23:31:00,48.1,31.3,30.34,NNE,22,0.0,1.0,52,0.00,,,0.00,Wunderground v.1.15,2013-04-18 03:31:00,
2013-04-17 23:36:00,47.5,30.7,30.34,NNE,22,0.0,1.0,52,0.00,,,0.00,Wunderground v.1.15,2013-04-18 03:36:00,
2013-04-17 23:41:00,47.0,30.7,30.34,NNE,22,0.0,1.0,53,0.00,,,0.00,Wunderground v.1.15,2013-04-18 03:41:00,
2013-04-17 23:46:00,46.6,31.3,30.35,NNE,22,0.0,1.0,55,0.00,,,0.00,Wunderground v.1.15,2013-04-18 03:46:00,
2013-04-17 23:51:00,46.1,30.8,30.35,NNE,22,0.0,0.0,55,0.00,,,0.00,Wunderground v.1.15,2013-04-18 03:51:00,
2013-04-17 23:56:00,45.8,31.0,30.35,NNE,22,0.0,0.0,56,0.00,,,0.00,Wunderground v.1.15,2013-04-18 03:56:00,